Date/Time (UTC),ProbHail,ProbWind,ProbTor,MESH,VIL Density,Flash Rate,Max Flash Density,LJA sigma-level,Max 0-2km AzShear,LLAZ 98th%,MLAZ 98th%,MUCAPE,MLCAPE,CAPE -10C to -30C,MLCIN,SRH 0-1km AGL,EBShear,MeanWind 0-1km AGL,Norm. Sat. Growth Rate,PWAT,WBZ,AvgBeamHgt,size
2020/03/03 07:16,6,81,90,0.55,2.5,5,0.13,0.0,20,13,28,1239,1064,430,6,451,40.4,55.5,0,1.2,7.4,1.0,415
2020/03/03 07:18,8,76,90,0.69,2.6,8,0.13,0.0,20,13,21,1230,1052,429,6,451,40.6,55.4,0,1.2,7.4,1.1,468
2020/03/03 07:20,9,73,90,0.69,2.6,8,0.13,0.0,20,13,17,1209,1027,429,6,449,41.1,55.3,0,1.2,7.4,1.3,314
2020/03/03 07:22,9,73,88,0.69,2.6,8,0.13,0.0,17,12,16,1206,1024,429,6,449,41.1,55.3,0,1.2,7.4,1.4,330
2020/03/03 07:24,7,67,88,0.64,2.1,8,0.16,0.0,17,11,16,1198,1019,429,6,447,41.1,55.1,0,1.2,7.3,1.5,373
2020/03/03 07:26,8,72,89,0.64,2.1,11,0.25,0.0,17,11,7,1193,1009,431,6,444,40.9,54.8,0,1.2,7.3,1.8,378
2020/03/03 07:28,16,85,86,0.64,2.2,25,0.57,4.4,15,10,8,1192,1005,433,6,443,40.8,54.7,0,1.2,7.3,1.9,373
2020/03/03 07:30,26,80,77,0.69,2.3,36,0.86,1.7,15,10,7,1193,1003,433,6,443,40.6,54.5,0,1.2,7.3,2.0,444
2020/03/03 07:32,25,86,84,0.69,2.3,36,0.86,0.0,13,10,10,1196,1000,432,7,443,40.4,54.3,0,1.1,7.3,2.2,382
2020/03/03 07:34,38,87,81,0.69,2.5,54,0.86,3.5,13,10,10,1200,994,435,7,441,40.2,54.3,0,1.1,7.3,2.4,388
2020/03/03 07:36,46,92,69,0.79,2.7,54,0.86,0.0,11,8,10,1198,994,433,7,441,40.2,54.2,0,1.1,7.3,2.4,405
2020/03/03 07:38,46,92,85,0.79,2.7,54,0.86,0.9,14,10,6,1204,987,429,7,446,39.7,53.6,0,1.1,7.3,2.9,284
2020/03/03 07:40,46,92,84,0.79,2.7,54,0.86,0.0,14,10,7,1210,983,431,6,446,39.6,53.5,0,1.1,7.3,2.9,233
2020/03/03 07:42,30,86,69,0.69,2.6,40,0.86,0.6,14,10,7,1217,975,434,6,443,39.4,53.4,0,1.1,7.3,3.1,201
2020/03/03 07:44,22,83,57,0.56,2.6,40,0.86,0.0,11,9,6,1208,964,435,6,442,38.4,53.1,0,1.1,7.3,3.5,249
2020/03/03 07:46,19,71,55,0.54,2.1,40,0.86,0.0,12,9,6,1206,960,435,6,440,38.2,53.0,0,1.1,7.3,3.5,230
2020/03/03 07:48,14,80,50,0.43,2.1,40,0.86,0.2,12,9,6,1202,960,434,6,443,38.2,52.9,0,1.1,7.3,3.5,219
2020/03/03 07:50,7,76,81,0.43,2.1,25,0.86,0.5,23,13,7,1192,944,432,5,439,37.7,52.5,0,1.1,7.2,4.0,241
2020/03/03 07:52,14,86,81,0.54,2.8,35,0.86,1.0,23,14,7,1190,936,433,5,431,37.4,52.5,0,1.1,7.2,4.2,264
2020/03/03 07:54,15,78,81,0.57,2.8,35,0.86,0.0,23,14,6,957,947,366,1,461,34.9,59.1,0,1.1,7.1,4.4,270
2020/03/03 07:56,19,86,79,0.62,2.8,35,0.86,0.0,23,14,6,947,943,359,2,463,35.2,59.2,0,1.1,7.1,4.6,322
2020/03/03 07:58,18,86,77,0.62,2.6,35,0.86,0.5,23,12,6,932,930,346,2,459,34.4,59.4,0,1.1,7.1,4.9,282
2020/03/03 08:00,18,78,72,0.77,3.1,25,0.86,0.3,12,10,6,929,927,343,2,458,34.1,59.5,0,1.1,7.1,5.0,321
2020/03/03 08:02,15,87,72,0.77,3.1,22,0.86,0.0,21,10,7,927,920,335,2,457,33.7,59.5,0,1.1,7.0,5.2,368
2020/03/03 08:04,15,87,79,0.77,3.1,24,0.86,1.1,22,13,6,919,907,326,2,454,33.2,59.6,0,1.1,6.9,5.5,265
2020/03/03 08:06,18,78,76,0.77,2.7,25,0.69,0.2,22,13,6,918,901,323,2,451,33.1,59.6,0,1.1,6.9,5.8,344
2020/03/03 08:08,15,86,73,0.64,2.6,31,0.69,1.7,22,13,7,916,890,321,3,447,32.8,59.6,0,1.1,6.8,6.1,321
2020/03/03 08:10,15,78,66,0.64,2.6,31,0.69,0.0,24,9,7,912,880,320,3,444,32.5,59.6,0,1.1,6.8,6.3,252
2020/03/03 08:12,22,86,72,0.55,2.1,50,0.95,4.9,24,9,5,912,870,322,3,439,32.3,59.4,0,1.0,6.7,6.6,276
2020/03/03 08:14,16,86,85,0.48,2.0,50,0.95,0.0,24,9,14,912,862,328,3,433,32.2,59.3,0,1.0,6.6,6.9,255
2020/03/03 08:16,16,93,66,0.47,2.0,50,0.95,0.0,11,8,15,915,856,331,4,428,32.1,59.1,0,1.0,6.6,7.1,223
2020/03/03 08:18,12,93,66,0.4,2.0,50,0.95,0.0,11,8,14,908,840,333,4,425,32.2,59.1,0,1.0,6.5,7.3,228
2020/03/03 08:20,5,84,56,0.4,2.5,24,0.95,0.0,11,7,9,904,827,335,4,422,32.4,59.0,0,1.0,6.5,7.4,226
2020/03/03 08:22,5,84,56,0.44,2.5,24,0.95,0.2,8,7,7,896,806,339,4,415,32.6,58.8,0,1.0,6.4,7.7,215
2020/03/03 08:24,5,83,52,0.46,2.5,21,0.95,0.6,8,7,7,895,802,340,4,412,32.6,58.7,0,1.0,6.4,7.8,230
2020/03/03 08:26,8,61,27,0.57,2.3,21,0.95,0.0,8,7,7,894,793,341,5,406,32.5,58.4,0,1.0,6.4,8.1,237
2020/03/03 08:28,12,73,25,0.75,3.0,21,0.95,0.2,9,6,7,890,787,342,6,399,32.3,58.0,0,1.0,6.4,8.5,282
2020/03/03 08:30,12,87,25,0.75,3.0,21,0.95,0.0,9,6,6,895,817,338,4,417,32.5,58.9,0,1.0,6.5,7.5,542
2020/03/03 08:32,9,81,21,0.75,3.0,16,0.95,0.0,9,5,7,875,750,345,9,395,32.2,57.4,0,1.0,6.4,8.9,262
2020/03/03 08:34,9,83,21,0.73,2.9,16,0.95,0.0,9,5,4,871,738,346,10,395,32.1,57.1,0,1.0,6.4,8.9,238
2020/03/03 08:36,8,81,14,0.71,2.9,15,0.95,0.0,7,5,5,862,711,346,12,394,31.8,56.7,0,1.0,6.4,8.9,208
2020/03/03 08:38,3,33,10,0.53,2.0,8,0.95,0.0,6,5,5,856,689,346,13,394,31.3,56.4,0,1.0,6.4,8.5,249
2020/03/03 08:40,2,29,10,0.36,1.7,8,0.95,0.0,7,5,5,854,671,347,15,394,30.7,56.1,0,1.0,6.4,8.3,219
2020/03/03 08:42,2,29,10,0.36,1.7,6,0.95,0.0,6,5,5,853,663,349,15,394,30.9,56.0,0,1.0,6.4,8.3,193
2020/03/03 08:44,1,24,6,0.22,1.4,6,0.49,0.0,6,5,5,850,621,351,19,397,28.7,55.2,0,1.0,6.5,7.6,204
2020/03/03 08:46,1,24,5,0.19,1.4,2,0.49,0.0,6,5,5,851,613,352,20,397,28.5,55.0,0,1.0,6.5,7.5,370
2020/03/03 08:48,1,24,5,0.17,1.4,1,0.46,0.0,6,5,4,850,632,350,18,397,28.7,55.4,0,1.0,6.5,7.7,116
2020/03/03 08:50,0,24,5,0.14,1.4,1,0.46,0.0,6,6,5,859,568,352,24,409,28.4,54.4,0,1.0,6.5,6.9,210
2020/03/03 08:52,1,24,8,0.14,1.4,1,0.46,0.0,6,6,5,842,652,337,11,474,35.0,59.8,0,1.0,6.5,6.7,417
2020/03/03 08:54,1,24,11,0.14,1.4,1,0.46,0.0,6,6,4,841,653,337,11,474,35.0,59.7,0,1.0,6.5,6.8,404
2020/03/03 08:56,1,22,19,0.09,1.0,1,0.4,0.0,10,7,5,853,604,331,14,487,35.0,59.8,0,1.0,6.5,6.1,434
2020/03/03 08:58,1,22,19,0.06,1.0,1,0.3,0.0,10,7,5,854,602,331,14,488,35.0,59.8,0,1.0,6.5,6.1,427
2020/03/03 09:00,1,22,19,0.05,1.0,0,0.25,0.0,10,7,5,853,606,331,13,488,35.0,59.8,0,1.0,6.5,6.1,419
2020/03/03 09:02,1,22,18,0.03,1.0,1,0.15,0.0,10,7,3,863,562,329,14,497,34.4,60.0,0,1.0,6.4,5.3,233
2020/03/03 09:04,1,22,13,0.0,1.0,1,0.15,0.0,9,7,3,873,527,330,15,492,33.8,60.2,0,1.0,6.3,5.1,183
2020/03/03 09:06,1,22,13,0.0,1.0,1,0.15,0.0,9,7,3,874,524,330,15,492,33.7,60.3,0,1.0,6.3,5.1,178
2020/03/03 09:08,1,22,12,0.0,0.9,1,0.15,0.0,9,7,4,887,483,330,16,483,33.7,60.3,0,1.0,6.2,4.6,165
2020/03/03 09:10,1,12,7,0.0,0.8,1,0.09,0.0,7,6,4,887,480,330,16,483,33.7,60.3,0,1.0,6.2,4.6,171
2020/03/03 09:12,1,12,7,0.0,0.8,1,0.05,0.0,7,6,4,900,450,330,17,471,34.3,60.3,0,1.0,6.2,4.3,160
2020/03/03 09:14,1,12,7,0.04,0.8,1,0.05,0.0,7,6,3,915,424,331,20,457,35.1,60.1,0,1.0,6.2,4.0,152
2020/03/03 09:16,1,22,19,0.06,0.8,1,0.05,0.0,11,8,5,925,410,331,22,448,35.4,59.8,0,1.0,6.3,3.7,224
2020/03/03 09:18,1,22,18,0.06,1.1,2,0.06,0.0,11,8,5,939,396,331,25,439,35.9,59.4,0,1.0,6.4,3.5,226
2020/03/03 09:20,1,22,18,0.06,1.1,2,0.06,0.0,11,8,5,938,396,331,25,439,35.9,59.4,0,1.0,6.4,3.5,224
2020/03/03 09:22,1,24,44,0.05,1.2,3,0.06,0.0,16,12,5,954,366,334,35,421,34.6,58.7,0,1.0,6.5,3.3,350
2020/03/03 09:24,1,33,45,0.08,1.4,3,0.06,0.0,16,12,6,955,370,334,34,422,35.9,58.6,0,1.0,6.6,3.0,138
2020/03/03 09:26,1,33,45,0.08,1.4,3,0.11,0.0,16,12,6,955,370,334,34,422,35.9,58.6,0,1.0,6.6,3.0,131
2020/03/03 09:28,1,33,14,0.11,1.4,3,0.15,0.0,10,8,6,961,358,343,42,418,34.4,57.9,0,1.0,6.8,2.8,214
2020/03/03 09:30,1,37,16,0.18,1.7,3,0.15,0.0,10,9,5,961,361,343,42,420,34.5,57.8,0,1.0,6.8,2.8,289
2020/03/03 09:32,1,48,13,0.22,2.2,3,0.15,0.0,10,9,6,980,356,360,50,419,33.5,57.6,0,1.0,6.8,2.9,138
2020/03/03 09:34,1,48,16,0.22,2.2,3,0.15,0.0,10,9,5,982,361,362,50,420,33.7,57.4,0,1.0,6.9,2.8,130
